Retour au catalogue

CENTISPACE-1 S11

ActifNavigationLEO
NORAD 62580·PAYLOAD·🇨🇳 China

Lancé Jan 13, 2025 depuis Yellow Sea Launch Area

Loading…

Prochains Passages (prochaines 24 heures)

TLE

FraisSource: Space-Track

Époque: Sep 14, 2026, 15:09 UTC

1 62580U 25007F   26257.63141251 -.00000053  00000-0  82563-4 0  9997
2 62580  54.9795 338.2839 0008831 272.0414  87.9531 13.80624697 87080

Suivez CENTISPACE-1 S11 en temps réel avec AllMySat

Download on the App Store